Location: Glendale
(37.4556°N, 88.6714°W)
Time: 05:56:33
(UTC+00:00)

STARLINK-51 - Pass Details

Date: 08 December 2019
Orbit: 529 x 531 km, 53.0° (Epoch: 21 January)

Event Time Altitude Azimuth Distance (km) Brightness Sun altitude
Exits shadow 11:00:58 43° 197° (SSW) 749 4.2 -22.3°
Drops below altitude 10° 11:04:12 10° 153° (SSE) 1,769 6.7 -21.7°
Sets 11:06:27 0° 148° (SSE) 2,654 7.8 -21.2°
